Location: Terra Rouge Observatory
(46.0000°N, 62.7500°W)
Time: 22:34:12
(UTC-03:00)

Amateur Radio Satellites - All Passes

Search period start: 24 July 2014 22:04
Search period end: 25 July 2014 22:04
Location: Terra Rouge Observatory, 46.0000°N, 62.7500°W

Satellite Date Start Highest point End Downlink Frequencies (MHz)
Time Altitude Azimuth
Oscar 11 24 Jul 22:25:28 22:29:41 55° 260° (W) 22:33:57 145.825 FM, Beacon 2401.500 USB
FUNcube-1 24 Jul 22:33:24 22:37:45 68° 74° (ENE) 22:42:01 145.950 - 145.970 MHz USB
UOSAT-12 24 Jul 22:39:02 22:41:54 16° 29° (NNE) 22:44:46 437.025 FM, 437.400 FM
MaSat-1 24 Jul 23:00:51 23:04:51 76° 116° (ESE) 23:09:34 437.345 MHz
SO-50 24 Jul 23:31:40 23:36:03 38° 242° (WSW) 23:40:28 436.795 FM
RS-15 24 Jul 23:48:37 23:59:39 82° 238° (WSW) 00:11:04 29.354 - 29.394 USB, Beacon 29.352 USB
FUNcube-1 25 Jul 00:12:42 00:14:36 13° 271° (W) 00:16:29 145.950 - 145.970 MHz USB
UOSAT-12 25 Jul 00:18:17 00:23:01 62° 50° (NE) 00:27:40 437.025 FM, 437.400 FM
Lituanica SAT-1 25 Jul 00:35:29 00:37:27 37° 146° (SSE) 00:39:27 437.275 MHz beacon
MaSat-1 25 Jul 00:39:53 00:42:55 18° 319° (NW) 00:46:14 437.345 MHz
PCSat 25 Jul 00:59:11 01:01:58 14° 103° (ESE) 01:04:46 145.825 MHz
AO-40 25 Jul 01:23:03 05:33:08 29° 147° (SSE) 07:06:48 Beacon 2401.320
Oscar 16 25 Jul 01:26:02 01:28:18 13° 87° (E) 01:30:34 437.025 USB, Beacon 2401.1428
ISS 25 Jul 01:35:40 01:38:35 28° 140° (SE) 01:41:32 145.800 FM
AO-27 25 Jul 01:56:19 01:57:23 11° 86° (E) 01:58:26 436.795 MHz FM
Uribyol 2 25 Jul 01:58:19 02:00:08 12° 87° (E) 02:01:57 436.500 FM
UOSAT-12 25 Jul 01:59:22 02:02:44 20° 249° (WSW) 02:06:04 437.025 FM, 437.400 FM
RS-15 25 Jul 02:02:39 02:10:18 22° 260° (W) 02:18:10 29.354 - 29.394 USB, Beacon 29.352 USB
Sapphire 25 Jul 02:05:36 02:10:45 47° 115° (ESE) 02:15:56 437.095 MHz 1200 baud AX-25 AFSK
Lituanica SAT-1 25 Jul 02:08:19 02:10:10 25° 344° (NNW) 02:12:01 437.275 MHz beacon
Oscar 19 25 Jul 02:35:38 02:40:41 52° 100° (E) 02:45:44 437.125 CW, 437.150 USB
PCSat 25 Jul 02:39:11 02:44:36 90° 302° (WNW) 02:50:04 145.825 MHz
Oscar 16 25 Jul 03:03:10 03:08:21 87° 285° (WNW) 03:13:32 437.025 USB, Beacon 2401.1428
JAS-1B 25 Jul 03:07:27 03:16:25 41° 92° (E) 03:24:18 435.800 - 435.900 CW/SSB
TMSAT-1 25 Jul 03:09:10 03:12:27 16° 89° (E) 03:15:43 436.925 FM
ISS 25 Jul 03:11:51 03:15:10 56° 338° (NNW) 03:18:30 145.800 FM
ITAMSAT 1 25 Jul 03:14:33 03:19:40 55° 101° (E) 03:24:43 435.822 SSB
OPAL 25 Jul 03:26:22 03:30:55 38° 65° (ENE) 03:35:30 ?
AO-Echo 25 Jul 03:27:57 03:33:09 77° 103° (ESE) 03:38:08 ?
Gurwin Techsat 1B 25 Jul 03:29:30 03:34:18 33° 96° (E) 03:39:04 435.225 FM
AO-27 25 Jul 03:32:30 03:37:44 80° 104° (ESE) 03:42:55 436.795 MHz FM
Uribyol 2 25 Jul 03:35:10 03:40:22 87° 105° (ESE) 03:45:32 436.500 FM
Lituanica SAT-1 25 Jul 03:41:44 03:43:16 17° 3° (N) 03:44:48 437.275 MHz beacon
Sapphire 25 Jul 03:49:29 03:54:21 33° 315° (NW) 03:59:15 437.095 MHz 1200 baud AX-25 AFSK
AO-7 25 Jul 04:04:45 04:09:55 17° 87° (E) 04:15:02 29.400 - 29.500 MHz
Oscar 19 25 Jul 04:15:40 04:19:43 24° 298° (WNW) 04:23:45 437.125 CW, 437.150 USB
PCSat 25 Jul 04:24:45 04:28:47 21° 323° (NW) 04:32:49 145.825 MHz
Oscar 16 25 Jul 04:44:20 04:46:57 14° 304° (NW) 04:49:35 437.025 USB, Beacon 2401.1428
TMSAT-1 25 Jul 04:47:38 04:52:56 72° 287° (WNW) 04:58:11 436.925 FM
ISS 25 Jul 04:49:19 04:52:20 30° 358° (N) 04:55:22 145.800 FM
ITAMSAT 1 25 Jul 04:54:48 04:58:48 23° 299° (WNW) 05:02:46 435.822 SSB
JAS-1B 25 Jul 04:57:44 05:07:14 59° 295° (WNW) 05:15:37 435.800 - 435.900 CW/SSB
OPAL 25 Jul 05:05:37 05:09:53 29° 263° (W) 05:14:11 ?
AO-Echo 25 Jul 05:08:03 05:11:15 17° 302° (WNW) 05:14:24 ?
Gurwin Techsat 1B 25 Jul 05:09:27 05:14:17 37° 294° (WNW) 05:19:06 435.225 FM
AO-27 25 Jul 05:13:26 05:16:36 17° 303° (WNW) 05:19:47 436.795 MHz FM
Lituanica SAT-1 25 Jul 05:14:13 05:16:16 43° 22° (NNE) 05:18:18 437.275 MHz beacon
Uribyol 2 25 Jul 05:16:16 05:19:09 15° 303° (WNW) 05:22:01 436.500 FM
Uosat F 25 Jul 05:20:58 05:25:56 58° 101° (ESE) 05:30:52 435.120 FM
Sapphire 25 Jul 05:38:26 05:39:33 11° 339° (NNW) 05:40:41 437.095 MHz 1200 baud AX-25 AFSK
MaSat-1 25 Jul 05:41:26 05:42:56 11° 33° (NNE) 05:44:27 437.345 MHz
STRAND 1 25 Jul 05:43:14 05:46:55 20° 60° (ENE) 05:50:36 ?
AO-7 25 Jul 05:55:36 06:04:00 80° 108° (ESE) 06:12:19 29.400 - 29.500 MHz
JAS-2 25 Jul 06:24:56 06:29:28 21° 87° (E) 06:33:38 435.800 - 435.900 CW/SSB, 435.910 FM
ISS 25 Jul 06:26:17 06:29:34 45° 18° (NNE) 06:32:49 145.800 FM
TMSAT-1 25 Jul 06:29:55 06:31:56 12° 306° (NW) 06:33:57 436.925 FM
Lituanica SAT-1 25 Jul 06:47:19 06:48:43 16° 220° (SW) 06:50:07 437.275 MHz beacon
JAS-1B 25 Jul 06:49:42 06:55:36 18° 318° (NW) 07:01:13 435.800 - 435.900 CW/SSB
Uosat F 25 Jul 07:00:37 07:04:19 21° 299° (WNW) 07:08:01 435.120 FM
MaSat-1 25 Jul 07:16:39 07:21:43 42° 53° (NE) 07:26:41 437.345 MHz
KITSAT 1 25 Jul 07:20:06 07:27:52 53° 114° (ESE) 07:35:39 435.175 FM
STRAND 1 25 Jul 07:20:32 07:25:39 63° 258° (WSW) 07:30:47 ?
Hamsat 25 Jul 07:25:16 07:29:34 87° 284° (WNW) 07:33:53 145.90 MHz
SO-67 25 Jul 07:41:57 07:44:40 21° 94° (E) 07:47:22 435.3500 MHz FM
AO-7 25 Jul 07:49:14 07:56:00 29° 309° (NW) 08:02:44 29.400 - 29.500 MHz
ISS 25 Jul 08:03:06 08:06:16 39° 217° (SW) 08:09:26 145.800 FM
JAS-2 25 Jul 08:08:59 08:15:16 64° 290° (WNW) 08:20:48 435.800 - 435.900 CW/SSB, 435.910 FM
Oscar 10/S400 25 Jul 08:19:41 09:14:01 16° 258° (WSW) 10:49:59 145.825 - 145.975 CW/USB, Beacon 145.810 USB
Saudisat 1A 25 Jul 08:20:59 08:23:59 18° 112° (ESE) 08:27:00 436.775 MHz
MaSat-1 25 Jul 08:54:16 08:59:01 33° 253° (WSW) 09:03:35 437.345 MHz
Hamsat 25 Jul 09:03:55 09:04:51 11° 301° (WNW) 09:05:47 145.90 MHz
Sapphire 25 Jul 09:08:25 09:11:51 17° 32° (NNE) 09:15:16 437.095 MHz 1200 baud AX-25 AFSK
SO-67 25 Jul 09:14:48 09:17:44 26° 291° (WNW) 09:20:39 435.3500 MHz FM
KITSAT 1 25 Jul 09:15:42 09:23:26 46° 316° (NW) 09:31:12 435.175 FM
UKube-1 25 Jul 09:22:27 09:24:27 13° 89° (E) 09:26:26 145.840 MHz, 145.915 MHz
HO-68 25 Jul 09:25:29 09:31:34 29° 94° (E) 09:37:35 435.675 MHz FM
PCSat 25 Jul 09:41:52 09:46:22 26° 41° (NE) 09:50:51 145.825 MHz
JAS-2 25 Jul 09:56:23 09:58:56 13° 312° (NW) 10:01:22 435.800 - 435.900 CW/SSB, 435.910 FM
Saudisat 1A 25 Jul 09:58:46 10:03:09 60° 310° (NW) 10:07:34 436.775 MHz
Oscar 11 25 Jul 10:11:08 10:14:32 22° 93° (E) 10:17:55 145.825 FM, Beacon 2401.500 USB
FUNcube-1 25 Jul 10:23:10 10:23:36 10° 88° (E) 10:24:02 145.950 - 145.970 MHz USB
Sapphire 25 Jul 10:50:55 10:56:21 66° 55° (NE) 11:01:44 437.095 MHz 1200 baud AX-25 AFSK
UKube-1 25 Jul 10:56:47 11:01:08 68° 287° (WNW) 11:05:27 145.840 MHz, 145.915 MHz
HO-68 25 Jul 11:12:40 11:19:42 61° 293° (WNW) 11:26:41 435.675 MHz FM
KITSAT 1 25 Jul 11:15:24 11:21:10 20° 344° (NNW) 11:26:56 435.175 FM
PCSat 25 Jul 11:24:52 11:30:16 67° 242° (WSW) 11:35:38 145.825 MHz
Saudisat 1A 25 Jul 11:41:15 11:43:39 14° 331° (NNW) 11:46:03 436.775 MHz
Oscar 11 25 Jul 11:46:50 11:50:51 38° 290° (WNW) 11:54:52 145.825 FM, Beacon 2401.500 USB
FUNcube-1 25 Jul 11:56:23 12:00:34 78° 285° (WNW) 12:04:44 145.950 - 145.970 MHz USB
JAS-1B 25 Jul 12:09:16 12:13:27 14° 37° (NE) 12:17:44 435.800 - 435.900 CW/SSB
Oscar 19 25 Jul 12:18:41 12:21:31 15° 57° (ENE) 12:24:21 437.125 CW, 437.150 USB
Sapphire 25 Jul 12:35:18 12:39:16 21° 253° (WSW) 12:43:12 437.095 MHz 1200 baud AX-25 AFSK
Oscar 16 25 Jul 12:44:43 12:48:51 26° 63° (ENE) 12:53:00 437.025 USB, Beacon 2401.1428
ITAMSAT 1 25 Jul 12:58:08 13:01:25 17° 58° (ENE) 13:04:41 435.822 SSB
HO-68 25 Jul 13:02:23 13:06:01 15° 314° (NW) 13:09:39 435.675 MHz FM
AO-Echo 25 Jul 13:06:09 13:09:55 20° 60° (ENE) 13:13:43 ?
KITSAT 1 25 Jul 13:14:28 13:20:06 20° 14° (NNE) 13:25:43 435.175 FM
AO-27 25 Jul 13:15:15 13:19:20 24° 61° (ENE) 13:23:24 436.795 MHz FM
Uribyol 2 25 Jul 13:17:31 13:21:42 25° 62° (ENE) 13:25:53 436.500 FM
Gurwin Techsat 1B 25 Jul 13:17:45 13:19:14 11° 53° (NE) 13:20:43 435.225 FM
SO-50 25 Jul 13:48:49 13:52:58 39° 118° (ESE) 13:57:12 436.795 FM
JAS-1B 25 Jul 13:53:04 14:01:18 44° 60° (ENE) 14:10:20 435.800 - 435.900 CW/SSB
Oscar 19 25 Jul 13:55:03 14:00:10 86° 256° (WSW) 14:05:20 437.125 CW, 437.150 USB
RS-15 25 Jul 14:14:48 14:25:22 52° 113° (ESE) 14:35:43 29.354 - 29.394 USB, Beacon 29.352 USB
Oscar 16 25 Jul 14:23:02 14:27:57 47° 261° (W) 14:32:55 437.025 USB, Beacon 2401.1428
TMSAT-1 25 Jul 14:31:54 14:36:35 33° 65° (ENE) 14:41:17 436.925 FM
ITAMSAT 1 25 Jul 14:35:04 14:40:17 79° 256° (WSW) 14:45:32 435.822 SSB
AO-Echo 25 Jul 14:42:54 14:48:10 68° 258° (WSW) 14:53:30 ?
Gurwin Techsat 1B 25 Jul 14:52:57 14:58:12 66° 72° (ENE) 15:03:30 435.225 FM
AO-27 25 Jul 14:53:23 14:58:30 54° 260° (W) 15:03:38 436.795 MHz FM
Uribyol 2 25 Jul 14:55:52 15:00:54 49° 260° (W) 15:05:57 436.500 FM
Uosat F 25 Jul 15:00:33 15:03:32 16° 57° (ENE) 15:06:32 435.120 FM
AO-7 25 Jul 15:05:57 15:13:11 34° 55° (NE) 15:20:25 29.400 - 29.500 MHz
Saudisat 1A 25 Jul 15:07:04 15:07:07 10° 21° (NNE) 15:07:11 436.775 MHz
KITSAT 1 25 Jul 15:10:19 15:17:58 43° 42° (NE) 15:25:33 435.175 FM
SO-50 25 Jul 15:29:33 15:33:36 32° 318° (NW) 15:37:45 436.795 FM
Oscar 19 25 Jul 15:38:39 15:40:17 11° 274° (W) 15:41:55 437.125 CW, 437.150 USB
JAS-1B 25 Jul 15:42:53 15:51:25 58° 262° (W) 16:01:05 435.800 - 435.900 CW/SSB
UOSAT-12 25 Jul 16:11:23 16:15:58 72° 124° (ESE) 16:20:40 437.025 FM, 437.400 FM
TMSAT-1 25 Jul 16:11:33 16:16:26 37° 263° (W) 16:21:22 436.925 FM
ITAMSAT 1 25 Jul 16:19:41 16:20:37 10° 274° (W) 16:21:34 435.822 SSB
RS-15 25 Jul 16:26:53 16:37:41 56° 318° (NW) 16:48:26 29.354 - 29.394 USB, Beacon 29.352 USB
Gurwin Techsat 1B 25 Jul 16:35:03 16:38:39 18° 270° (W) 16:42:17 435.225 FM
Uosat F 25 Jul 16:36:38 16:41:42 81° 256° (WSW) 16:46:47 435.120 FM
JAS-2 25 Jul 16:39:33 16:44:34 19° 54° (NE) 16:49:23 435.800 - 435.900 CW/SSB, 435.910 FM
Saudisat 1A 25 Jul 16:44:00 16:48:03 34° 43° (NE) 16:52:04 436.775 MHz
Hamsat 25 Jul 16:49:02 16:49:49 10° 58° (ENE) 16:50:36 145.90 MHz
AO-7 25 Jul 16:57:09 17:05:28 67° 255° (WSW) 17:13:49 29.400 - 29.500 MHz
KITSAT 1 25 Jul 17:05:48 17:13:41 58° 244° (WSW) 17:21:30 435.175 FM
OPAL 25 Jul 17:11:51 17:16:50 57° 103° (ESE) 17:21:51 ?
SO-50 25 Jul 17:14:55 17:15:38 10° 341° (NNW) 17:16:20 436.795 FM
JAS-1B 25 Jul 17:40:41 17:44:15 13° 285° (WNW) 17:47:57 435.800 - 435.900 CW/SSB
UOSAT-12 25 Jul 17:52:56 17:56:37 23° 324° (NW) 18:00:21 437.025 FM, 437.400 FM
SO-67 25 Jul 18:19:04 18:20:28 12° 63° (ENE) 18:21:52 435.3500 MHz FM
Uosat F 25 Jul 18:20:33 18:21:17 10° 274° (W) 18:22:01 435.120 FM
JAS-2 25 Jul 18:20:44 18:28:34 76° 72° (ENE) 18:35:57 435.800 - 435.900 CW/SSB, 435.910 FM
Hamsat 25 Jul 18:20:55 18:25:06 90° 78° (ENE) 18:29:20 145.90 MHz
Saudisat 1A 25 Jul 18:23:38 18:27:39 35° 243° (WSW) 18:31:38 436.775 MHz
Oscar 10/S400 25 Jul 18:40:33 18:48:32 13° 136° (SE) 18:57:24 145.825 - 145.975 CW/USB, Beacon 145.810 USB
RS-15 25 Jul 18:43:48 18:53:02 30° 350° (N) 19:02:21 29.354 - 29.394 USB, Beacon 29.352 USB
OPAL 25 Jul 18:51:32 18:55:21 22° 301° (WNW) 18:59:11 ?
AO-7 25 Jul 18:56:11 18:59:51 13° 275° (W) 19:03:32 29.400 - 29.500 MHz
KITSAT 1 25 Jul 19:05:37 19:07:20 11° 264° (W) 19:09:02 435.175 FM
STRAND 1 25 Jul 19:28:50 19:33:33 36° 97° (E) 19:38:13 ?
SO-67 25 Jul 19:49:44 19:53:07 51° 260° (W) 19:56:32 435.3500 MHz FM
HO-68 25 Jul 19:57:04 20:03:06 31° 57° (ENE) 20:09:08 435.675 MHz FM
JAS-2 25 Jul 20:07:52 20:14:06 26° 270° (W) 20:20:09 435.800 - 435.900 CW/SSB, 435.910 FM
UKube-1 25 Jul 20:20:15 20:23:06 17° 61° (ENE) 20:25:58 145.840 MHz, 145.915 MHz
SO-50 25 Jul 20:37:59 20:41:07 17° 31° (NNE) 20:44:15 436.795 FM
RS-15 25 Jul 20:59:37 21:09:29 36° 25° (NNE) 21:19:31 29.354 - 29.394 USB, Beacon 29.352 USB
STRAND 1 25 Jul 21:08:10 21:12:41 32° 295° (WNW) 21:17:10 ?
Oscar 11 25 Jul 21:08:45 21:12:14 25° 66° (ENE) 21:15:44 145.825 FM, Beacon 2401.500 USB
FUNcube-1 25 Jul 21:21:23 21:23:31 14° 61° (ENE) 21:25:37 145.950 - 145.970 MHz USB
HO-68 25 Jul 21:43:15 21:50:22 64° 257° (WSW) 21:57:30 435.675 MHz FM
UKube-1 25 Jul 21:54:36 21:58:54 57° 259° (W) 22:03:14 145.840 MHz, 145.915 MHz
